Date,TemperatureHighF,TemperatureAvgF,TemperatureLowF,DewpointHighF,DewpointAvgF,DewpointLowF,HumidityHigh,HumidityAvg,HumidityLow,PressureMaxIn,PressureMinIn,WindSpeedMaxMPH,WindSpeedAvgMPH,GustSpeedMaxMPH,PrecipitationSumIn
2013-4-1,47,42,33,44,31,14,90,67,31,30.06,29.76,12,2,14,0.02
2013-4-2,42,33,25,20,15,10,67,49,29,30.25,30.05,15,1,17,0.00
2013-4-3,45,32,20,22,15,8,86,55,25,30.45,30.25,17,1,19,0.00
2013-4-4,57,38,17,22,16,9,84,48,15,30.44,30.03,10,1,13,0.00
2013-4-5,60,45,27,34,26,21,86,51,30,30.19,29.96,15,1,19,0.00
2013-4-6,65,44,22,26,17,4,88,43,10,30.32,30.05,14,1,19,0.00
2013-4-7,73,63,54,53,38,22,92,43,26,30.05,29.90,19,4,21,0.07
2013-4-8,77,62,47,54,47,42,94,62,33,30.05,29.91,15,1,15,0.00
2013-4-9,82,67,49,56,51,45,90,60,38,30.10,29.93,15,1,16,0.00
2013-4-10,86,74,59,59,55,50,80,54,36,29.97,29.78,15,2,17,0.00
2013-4-11,83,68,52,59,55,50,93,65,39,29.86,29.55,11,1,12,0.00
2013-4-12,75,62,47,60,50,36,91,65,37,29.85,29.49,18,2,20,0.35
2013-4-13,61,49,39,37,33,29,79,56,32,30.02,29.84,13,2,17,0.00
2013-4-14,66,50,30,40,33,26,89,57,30,30.20,30.00,13,1,14,0.00
2013-4-15,67,62,57,50,45,38,70,54,39,30.11,29.99,20,3,22,0.00
2013-4-16,82,69,58,61,54,48,94,61,42,30.22,30.02,14,3,17,0.67
2013-4-17,70,61,54,60,57,53,97,88,70,30.23,30.06,11,0,16,0.01
2013-4-18,85,73,64,68,57,53,83,60,38,30.09,29.78,19,4,20,0.02
2013-4-19,75,62,46,61,50,33,86,65,52,29.87,29.47,19,3,23,0.13
2013-4-20,52,43,32,34,28,23,77,56,34,30.42,29.87,15,2,19,0.01
2013-4-21,58,41,25,30,24,19,91,55,26,30.62,30.42,11,1,13,0.00
2013-4-22,63,51,42,32,26,17,54,38,18,30.48,30.27,19,5,20,0.00
2013-4-23,72,57,38,42,34,28,78,46,21,30.28,29.97,18,2,20,0.00
2013-4-24,76,61,41,59,46,33,87,60,44,30.18,29.73,19,3,22,0.19
2013-4-25,60,46,33,37,32,28,93,61,33,30.38,30.17,12,1,13,0.00
2013-4-26,62,48,34,38,33,28,90,60,29,30.49,30.38,8,1,10,0.00
2013-4-27,76,56,32,42,34,27,95,53,19,30.42,30.17,10,1,13,0.00
2013-4-28,64,58,51,52,47,40,89,67,46,30.19,29.94,17,2,18,0.14
2013-4-29,68,60,56,57,52,47,90,76,62,30.02,29.94,12,1,17,0.06
2013-4-30,75,63,56,55,52,49,86,69,47,30.17,30.01,16,3,21,0.00